Flag for Sweden Weather past 2 weeks in Växjö, Sweden

Now
70 °F

Mild.


Feels Like: 70 °F
Forecast: 51 / 77 °F
Wind: 12 mph from West

Location: Vaxjo Airport

Current Time: Jun 30, 2015 at 7:46:52 PM

Latest Report: Jun 30, 2015 at 6:50 PM


Visibility: N/A

Pressure: 30.09 "Hg

Humidity: 57%

Dew point: 54 °F

Location of VäxjöLocation

Historic Weather in Växjö — Graph

°F

Växjö temperature yesterday

Maximum temperature yesterday: 66 °F (at 4:20 PM)
Minimum temperature yesterday: 50 °F (at 1:50 AM)
Average temperature yesterday: 58 °F

Past Weeks' High & Low Weather Summary

 TemperatureHumidityPressure
High72 °F (Jun 30, 3:50 PM)100% (Jun 16, 2:20 AM)30.09 "Hg (Jun 16, 2:20 AM)
Low39 °F (Jun 16, 1:50 AM)43% (Jun 26, 1:20 PM)29.62 "Hg (Jun 18, 6:20 PM)
Average55 °F81%29.88 "Hg
* Reported Jun 15 6:20 PM — Jun 30 6:50 PM, Växjö, Weather by CustomWeather, © 2015

Note: Actual official high and low records may vary slightly from our data, if they occured in-between our weather recording intervals... More about our weather records

Advertising

Växjö weather history for previous 24 hours

 ConditionsComfort  
Time TempWeatherWind HumidityBarometerVisibility
6:50 PM
Tue, Jun 30
70 °FMild.12 mph57%30.09 "HgN/A
6:20 PM70 °FPassing clouds.10 mph53%30.09 "HgN/A
5:50 PM70 °FPassing clouds.12 mph53%30.09 "HgN/A
4:50 PM72 °FScattered clouds.7 mph50%30.09 "HgN/A
4:20 PM72 °FScattered clouds.10 mph50%30.09 "HgN/A
3:50 PM72 °FBroken clouds.8 mph47%30.09 "HgN/A
2:50 PM70 °FPassing clouds.8 mph50%30.09 "HgN/A
2:20 PM70 °FPartly sunny.13 mph53%30.09 "HgN/A
1:50 PM70 °FScattered clouds.12 mph50%30.09 "HgN/A
1:20 PM68 °FPartly sunny.12 mph53%30.09 "HgN/A
12:50 PM66 °FScattered clouds.9 mph56%30.09 "HgN/A
12:20 PM66 °FScattered clouds.9 mph56%30.07 "HgN/A
11:50 AM66 °FScattered clouds.9 mph56%30.07 "HgN/A
11:20 AM66 °FScattered clouds.10 mph56%30.07 "HgN/A
10:50 AM64 °FPassing clouds.12 mph60%30.07 "HgN/A
10:20 AM63 °FPassing clouds.12 mph64%30.07 "HgN/A
9:50 AM63 °FPassing clouds.10 mph64%30.07 "HgN/A
9:20 AM61 °FPassing clouds.13 mph68%30.07 "HgN/A
8:50 AM61 °FCool.10 mph72%30.07 "HgN/A
8:20 AM59 °FBroken clouds.9 mph77%30.07 "HgN/A
7:50 AM57 °FPartly sunny.10 mph82%30.07 "HgN/A
7:20 AM57 °FPartly sunny.9 mph88%30.07 "HgN/A
6:50 AM55 °FPartly sunny.6 mph94%30.04 "HgN/A
6:20 AM55 °FLow clouds.5 mph94%30.04 "HgN/A
5:50 AM55 °FScattered clouds.6 mph94%30.04 "HgN/A
5:20 AM54 °FPassing clouds.7 mph100%30.04 "HgN/A
4:50 AM55 °FPassing clouds.7 mph94%30.04 "HgN/A
4:20 AM55 °FPassing clouds.6 mph94%30.04 "HgN/A
3:50 AM55 °FPassing clouds.7 mph94%30.04 "HgN/A
3:20 AM55 °FPassing clouds.7 mph94%30.04 "HgN/A
2:50 AM55 °FPassing clouds.7 mph94%30.04 "HgN/A
2:20 AM55 °FPassing clouds.7 mph100%30.04 "HgN/A
1:50 AM55 °FClear.6 mph100%30.04 "Hg10 mi
1:20 AM55 °FClear.6 mph100%30.04 "Hg10 mi
12:50 AM55 °FClear.6 mph94%30.04 "Hg10 mi
12:20 AM55 °FClear.6 mph94%30.04 "Hg10 mi
11:20 PM
Mon, Jun 29
55 °FClear.6 mph94%30.04 "Hg10 mi
10:50 PM57 °FCool.6 mph88%30.04 "HgN/A
10:20 PM57 °FSunny.5 mph88%30.04 "Hg10 mi
9:50 PM59 °FPassing clouds.5 mph82%30.04 "HgN/A
9:20 PM59 °FSunny.6 mph82%30.04 "Hg10 mi
8:50 PM61 °FCool.6 mph77%30.04 "HgN/A
8:20 PM64 °FMild.8 mph68%30.04 "HgN/A
7:50 PM64 °FScattered clouds.8 mph68%30.04 "HgN/A
7:20 PM64 °FScattered clouds.8 mph68%30.04 "HgN/A
Weather by CustomWeather, © 2015

See weather overviewHow to use our weather pages